This demonstration page uses our WeatherBlox Daily Observations layout. Learn more.

Left ArrowRight Arrow

41.86663, -103.66717

Hourly Observations for January 13, 2016

Temp ( °F °C ) Dew Point ( °F °C ) Humidity (%) Winds ( mph kmh ) Pressure ( in mb ) Visibility ( mi km ) Precip ( " mm )
12:53 am 00:53 Clear 20 -6.7 14 -10 78 78 NW 7 11 30.14 1021 10 16 N/A
1:53 am 01:53 Clear 18 -7.8 12 -11.1 77 77 N N/A 30.13 1020 10 16 N/A
2:53 am 02:53 Clear 16 -8.9 12 -11.1 84 84 N 3 6 30.14 1021 10 16 N/A
3:53 am 03:53 Clear 15 -9.4 10 -12.2 80 80 NW 3 6 30.11 1020 10 16 N/A
4:53 am 04:53 Clear 16 -8.9 12 -11.1 84 84 NNW 7 11 30.09 1019 10 16 N/A
5:53 am 05:53 Clear 18 -7.8 13 -10.6 81 81 NNW 5 7 30.08 1019 10 16 N/A
6:53 am 06:53 Clear 17 -8.3 11 -11.7 77 77 NNW 3 6 30.09 1019 10 16 N/A
7:53 am 07:53 Sunny 17 -8.3 11 -11.7 77 77 NNW 5 7 30.08 1019 10 16 N/A
8:53 am 08:53 Sunny 20 -6.7 13 -10.6 74 74 N N/A 30.08 1019 10 16 N/A
9:53 am 09:53 Sunny 27 -2.8 19 -7.2 72 72 SE 5 7 30.04 1017 10 16 N/A
10:53 am 10:53 Sunny 38 3.3 20 -6.7 48 48 NW 7 11 29.98 1015 10 16 N/A
11:53 am 11:53 Sunny 44 6.7 22 -5.6 41 41 W 20 31 29.91 1013 10 16 N/A
12:53 pm 12:53 Sunny 44 6.7 22 -5.6 41 41 W 15 24 29.88 1012 10 16 N/A
1:53 pm 13:53 Sunny 46 7.8 22 -5.6 38 38 W 15 24 29.85 1011 10 16 N/A
2:53 pm 14:53 Sunny 46 7.8 23 -5 40 40 WNW 10 17 29.84 1011 10 16 N/A
3:53 pm 15:53 Sunny 43 6.1 25 -3.9 49 49 W 9 15 29.85 1011 10 16 N/A
4:53 pm 16:53 Clear 38 3.3 25 -3.9 60 60 N N/A 29.85 1011 10 16 N/A
5:53 pm 17:53 Clear 33 0.6 24 -4.4 70 70 N 3 6 29.85 1011 10 16 N/A
6:53 pm 18:53 Clear 35 1.7 23 -5 61 61 NNW 5 7 29.83 1010 10 16 N/A
7:53 pm 19:53 Clear 34 1.1 22 -5.6 61 61 NW 6 9 29.81 1009 10 16 N/A
8:53 pm 20:53 Clear 32 undefined 21 -6.1 64 64 NNW 7 11 29.80 1009 10 16 N/A
9:53 pm 21:53 Clear 36 2.2 21 -6.1 55 55 N N/A 29.75 1007 10 16 N/A
10:53 pm 22:53 Clear 30 -1.1 19 -7.2 64 64 WSW 3 6 29.72 1007 10 16 N/A
11:53 pm 23:53 Clear 28 -2.2 18 -7.8 66 66 WNW 7 11 29.70 1006 10 16 N/A

Powered by AerisWeather